Time,TemperatureF,DewpointF,PressureIn,WindDirection,WindDirectionDegrees,WindSpeedMPH,WindSpeedGustMPH,Humidity,HourlyPrecipIn,Conditions,Clouds,dailyrainin,SoftwareType,DateUTC
2013-11-16 00:13:00,47.0,43.0,29.57,South,182,5.0,9.0,87,0.00,,,0.00,,2013-11-16 06:13:00,
2013-11-16 00:22:00,47.0,44.0,29.57,SSW,202,5.0,9.0,88,0.00,,,0.00,,2013-11-16 06:22:00,
2013-11-16 00:42:00,48.0,45.0,29.57,SW,215,6.0,9.0,88,0.00,,,0.00,,2013-11-16 06:42:00,
2013-11-16 00:52:00,48.0,45.0,29.56,South,186,6.0,10.0,88,0.00,,,0.00,,2013-11-16 06:52:00,
2013-11-16 01:22:00,48.0,45.0,29.54,SSW,203,7.0,14.0,88,0.00,,,0.00,,2013-11-16 07:22:00,
2013-11-16 01:42:00,49.0,46.0,29.53,WSW,242,7.0,14.0,88,0.00,,,0.00,,2013-11-16 07:42:00,
2013-11-16 01:52:00,49.0,45.0,29.52,South,184,7.0,13.0,87,0.00,,,0.00,,2013-11-16 07:52:00,
2013-11-16 02:12:00,49.0,46.0,29.51,SW,216,7.0,13.0,88,0.00,,,0.00,,2013-11-16 08:12:00,
2013-11-16 02:22:00,49.0,46.0,29.50,SSW,198,6.0,13.0,88,0.00,,,0.00,,2013-11-16 08:22:00,
2013-11-16 02:42:00,48.0,45.0,29.49,South,186,6.0,11.0,88,0.00,,,0.00,,2013-11-16 08:42:00,
2013-11-16 02:52:00,48.0,45.0,29.49,SSW,206,6.0,10.0,89,0.00,,,0.00,,2013-11-16 08:52:00,
2013-11-16 03:11:00,48.0,45.0,29.48,SSW,202,5.0,10.0,89,0.00,,,0.00,,2013-11-16 09:11:00,
2013-11-16 03:22:00,47.0,44.0,29.47,South,177,5.0,8.0,89,0.00,,,0.00,,2013-11-16 09:22:00,
2013-11-16 03:42:00,48.0,45.0,29.46,SSW,201,6.0,10.0,89,0.00,,,0.00,,2013-11-16 09:42:00,
2013-11-16 03:53:00,48.0,45.0,29.45,SSW,198,7.0,11.0,89,0.00,,,0.00,,2013-11-16 09:53:00,
2013-11-16 04:12:00,48.0,45.0,29.44,SSW,207,6.0,11.0,90,0.00,,,0.00,,2013-11-16 10:12:00,
2013-11-16 04:23:00,48.0,45.0,29.43,SW,214,5.0,10.0,89,0.00,,,0.00,,2013-11-16 10:23:00,
2013-11-16 04:43:00,48.0,45.0,29.42,West,277,5.0,10.0,90,0.00,,,0.00,,2013-11-16 10:43:00,
2013-11-16 04:52:00,48.0,45.0,29.41,SSW,200,5.0,9.0,90,0.00,,,0.00,,2013-11-16 10:52:00,
2013-11-16 05:12:00,48.0,45.0,29.40,SSW,206,5.0,10.0,91,0.00,,,0.00,,2013-11-16 11:12:00,
2013-11-16 05:22:00,50.0,47.0,29.39,South,180,6.0,13.0,91,0.00,,,0.00,,2013-11-16 11:22:00,
2013-11-16 05:42:00,50.0,47.0,29.38,SSW,209,7.0,15.0,90,0.00,,,0.00,,2013-11-16 11:42:00,
2013-11-16 05:53:00,51.0,48.0,29.38,SSW,198,9.0,17.0,91,0.00,,,0.00,,2013-11-16 11:53:00,
2013-11-16 06:12:00,51.0,48.0,29.36,South,170,7.0,15.0,91,0.00,,,0.00,,2013-11-16 12:12:00,
2013-11-16 06:21:00,52.0,49.0,29.35,SW,215,8.0,15.0,91,0.00,,,0.00,,2013-11-16 12:21:00,
2013-11-16 06:42:00,52.0,49.0,29.35,SSE,151,7.0,15.0,91,0.00,,,0.00,,2013-11-16 12:42:00,
2013-11-16 06:52:00,52.0,49.0,29.34,WSW,238,7.0,15.0,91,0.00,,,0.00,,2013-11-16 12:52:00,
2013-11-16 07:11:00,52.0,49.0,29.34,SE,137,7.0,15.0,91,0.00,,,0.00,,2013-11-16 13:11:00,
2013-11-16 07:22:00,52.0,49.0,29.34,West,276,6.0,14.0,91,0.00,,,0.00,,2013-11-16 13:22:00,
2013-11-16 07:42:00,52.0,49.0,29.34,South,188,6.0,13.0,91,0.00,,,0.00,,2013-11-16 13:42:00,
2013-11-16 07:52:00,52.0,49.0,29.33,West,265,6.0,15.0,91,0.00,,,0.00,,2013-11-16 13:52:00,
2013-11-16 08:11:00,53.0,50.0,29.33,NW,304,6.0,14.0,91,0.00,,,0.00,,2013-11-16 14:11:00,
2013-11-16 08:22:00,54.0,51.0,29.33,North,360,7.0,13.0,90,0.00,,,0.00,,2013-11-16 14:22:00,
2013-11-16 08:42:00,55.0,52.0,29.33,ENE,57,9.0,17.0,88,0.00,,,0.00,,2013-11-16 14:42:00,
2013-11-16 08:52:00,56.0,51.0,29.34,SW,230,8.0,16.0,84,0.00,,,0.00,,2013-11-16 14:52:00,
2013-11-16 09:21:00,58.0,52.0,29.33,West,273,12.0,19.0,79,0.00,,,0.00,,2013-11-16 15:21:00,
2013-11-16 09:43:00,58.0,51.0,29.34,West,263,14.0,22.0,78,0.00,,,0.00,,2013-11-16 15:43:00,
2013-11-16 09:53:00,58.0,50.0,29.34,West,265,13.0,23.0,76,0.00,,,0.00,,2013-11-16 15:53:00,
2013-11-16 10:13:00,58.0,50.0,29.33,WNW,290,13.0,20.0,75,0.00,,,0.00,,2013-11-16 16:13:00,
2013-11-16 10:23:00,58.0,50.0,29.32,West,263,11.0,20.0,74,0.00,,,0.00,,2013-11-16 16:23:00,
2013-11-16 10:43:00,59.0,50.0,29.34,WNW,290,12.0,20.0,73,0.00,,,0.00,,2013-11-16 16:43:00,
2013-11-16 10:53:00,59.0,50.0,29.35,West,272,10.0,22.0,72,0.00,,,0.00,,2013-11-16 16:53:00,
2013-11-16 11:12:00,59.0,49.0,29.35,West,261,10.0,19.0,69,0.00,,,0.00,,2013-11-16 17:12:00,
2013-11-16 11:22:00,61.0,49.0,29.34,West,277,13.0,23.0,64,0.00,,,0.00,,2013-11-16 17:22:00,
2013-11-16 11:43:00,61.0,47.0,29.34,West,261,15.0,26.0,60,0.00,,,0.00,,2013-11-16 17:43:00,
2013-11-16 11:52:00,61.0,45.0,29.34,NW,319,12.0,19.0,55,0.00,,,0.00,,2013-11-16 17:52:00,
2013-11-16 12:12:00,61.0,43.0,29.34,West,271,11.0,19.0,51,0.00,,,0.00,,2013-11-16 18:12:00,
2013-11-16 12:23:00,63.0,42.0,29.34,WNW,294,9.0,16.0,46,0.00,,,0.00,,2013-11-16 18:23:00,
2013-11-16 12:42:00,63.0,40.0,29.34,NW,321,8.0,16.0,43,0.00,,,0.00,,2013-11-16 18:42:00,
2013-11-16 12:52:00,64.0,39.0,29.34,WNW,286,7.0,12.0,40,0.00,,,0.00,,2013-11-16 18:52:00,
2013-11-16 13:12:00,64.0,40.0,29.33,WNW,302,6.0,11.0,41,0.00,,,0.00,,2013-11-16 19:12:00,
2013-11-16 13:22:00,65.0,41.0,29.33,NNW,342,7.0,12.0,41,0.00,,,0.00,,2013-11-16 19:22:00,
2013-11-16 13:42:00,65.0,41.0,29.32,NW,325,7.0,14.0,41,0.00,,,0.00,,2013-11-16 19:42:00,
2013-11-16 13:53:00,66.0,39.0,29.33,West,271,7.0,15.0,37,0.00,,,0.00,,2013-11-16 19:53:00,
2013-11-16 14:12:00,66.0,36.0,29.33,NW,304,7.0,14.0,33,0.00,,,0.00,,2013-11-16 20:12:00,
2013-11-16 14:22:00,66.0,37.0,29.33,WNW,284,7.0,13.0,34,0.00,,,0.00,,2013-11-16 20:22:00,
2013-11-16 14:42:00,66.0,34.0,29.33,NNW,338,7.0,14.0,30,0.00,,,0.00,,2013-11-16 20:42:00,
2013-11-16 15:22:00,66.0,32.0,29.34,NNW,340,5.0,12.0,28,0.00,,,0.00,,2013-11-16 21:22:00,
2013-11-16 15:44:00,66.0,31.0,29.34,WNW,291,6.0,10.0,27,0.00,,,0.00,,2013-11-16 21:44:00,
2013-11-16 15:54:00,66.0,31.0,29.34,NNW,335,4.0,9.0,27,0.00,,,0.00,,2013-11-16 21:54:00,
2013-11-16 16:13:00,66.0,29.0,29.34,NNW,336,4.0,8.0,25,0.00,,,0.00,,2013-11-16 22:13:00,
2013-11-16 16:24:00,66.0,28.0,29.35,NW,318,5.0,8.0,24,0.00,,,0.00,,2013-11-16 22:24:00,
2013-11-16 16:42:00,65.0,29.0,29.36,NNW,338,3.0,8.0,26,0.00,,,0.00,,2013-11-16 22:42:00,
2013-11-16 16:53:00,63.0,29.0,29.36,NW,306,3.0,7.0,28,0.00,,,0.00,,2013-11-16 22:53:00,
2013-11-16 17:13:00,60.0,29.0,29.36,NW,306,1.0,3.0,31,0.00,,,0.00,,2013-11-16 23:13:00,
2013-11-16 17:22:00,58.0,28.0,29.37,NW,306,2.0,4.0,32,0.00,,,0.00,,2013-11-16 23:22:00,
2013-11-16 17:43:00,58.0,28.0,29.37,NW,306,3.0,5.0,31,0.00,,,0.00,,2013-11-16 23:43:00,
2013-11-16 17:53:00,57.0,27.0,29.37,NW,306,0.0,2.0,32,0.00,,,0.00,,2013-11-16 23:53:00,
2013-11-16 18:12:00,56.0,28.0,29.38,NW,306,0.0,0.0,34,0.00,,,0.00,,2013-11-17 00:12:00,
2013-11-16 18:22:00,56.0,28.0,29.37,NW,306,0.0,0.0,34,0.00,,,0.00,,2013-11-17 00:22:00,
2013-11-16 18:42:00,54.0,28.0,29.36,NW,306,0.0,0.0,37,0.00,,,0.00,,2013-11-17 00:42:00,
2013-11-16 18:52:00,51.0,28.0,29.35,North,5,0.0,1.0,40,0.00,,,0.00,,2013-11-17 00:52:00,
2013-11-16 19:22:00,47.0,28.0,29.35,NE,34,0.0,1.0,48,0.00,,,0.00,,2013-11-17 01:22:00,
2013-11-16 19:42:00,45.0,28.0,29.36,NE,34,0.0,0.0,51,0.00,,,0.00,,2013-11-17 01:42:00,
2013-11-16 19:52:00,43.0,28.0,29.37,NE,40,0.0,2.0,56,0.00,,,0.00,,2013-11-17 01:52:00,
2013-11-16 20:12:00,42.0,29.0,29.37,NE,41,0.0,0.0,59,0.00,,,0.00,,2013-11-17 02:12:00,
2013-11-16 20:22:00,44.0,29.0,29.36,NE,41,0.0,1.0,55,0.00,,,0.00,,2013-11-17 02:22:00,
2013-11-16 20:52:00,46.0,29.0,29.37,NE,41,0.0,0.0,51,0.00,,,0.00,,2013-11-17 02:52:00,
2013-11-16 21:22:00,45.0,30.0,29.36,ENE,57,0.0,2.0,56,0.00,,,0.00,,2013-11-17 03:22:00,
2013-11-16 21:55:00,46.0,32.0,29.35,ENE,57,0.0,3.0,58,0.00,,,0.00,,2013-11-17 03:55:00,
2013-11-16 22:03:00,-999.0,-99.9,29.34,ENE,57,2.0,3.0,-999,-99.99,,,-99.99,,2013-11-17 04:03:00,
2013-11-16 22:14:00,45.0,32.0,29.34,ENE,57,2.0,3.0,60,0.00,,,0.00,,2013-11-17 04:14:00,
2013-11-16 22:24:00,45.0,32.0,29.34,ENE,57,0.0,2.0,60,0.00,,,0.00,,2013-11-17 04:24:00,
2013-11-16 22:43:00,46.0,32.0,29.33,ENE,59,0.0,3.0,59,0.00,,,0.00,,2013-11-17 04:43:00,
2013-11-16 22:53:00,45.0,33.0,29.33,ENE,59,0.0,0.0,62,0.00,,,0.00,,2013-11-17 04:53:00,
2013-11-16 23:13:00,45.0,32.0,29.33,ENE,59,0.0,0.0,61,0.00,,,0.00,,2013-11-17 05:13:00,
2013-11-16 23:23:00,44.0,32.0,29.33,ENE,59,0.0,0.0,62,0.00,,,0.00,,2013-11-17 05:23:00,
2013-11-16 23:44:00,44.0,32.0,29.31,ENE,59,0.0,0.0,62,0.00,,,0.00,,2013-11-17 05:44:00,
2013-11-16 23:53:00,43.0,32.0,29.31,ENE,65,0.0,2.0,65,0.00,,,0.00,,2013-11-17 05:53:00,